EDT,Max TemperatureF,Mean TemperatureF,Min TemperatureF,Max Dew PointF,MeanDew PointF,Min DewpointF,Max Humidity, Mean Humidity, Min Humidity, Max Sea Level PressureIn, Mean Sea Level PressureIn, Min Sea Level PressureIn, Max VisibilityMiles, Mean VisibilityMiles, Min VisibilityMiles, Max Wind SpeedMPH, Mean Wind SpeedMPH, Max Gust SpeedMPH,PrecipitationIn, CloudCover, Events, WindDirDegrees
2012-3-1,24,20,15,16,13,9,93,80,50,30.10,30.00,29.96,10,4,0,17,10,24,0.00,8,,32
2012-3-2,28,20,12,23,14,9,93,78,64,30.15,30.10,30.06,10,10,9,10,7,,0.00,6,,23
2012-3-3,35,30,24,36,31,21,100,97,86,29.98,29.57,29.29,10,5,0,10,2,,0.44,8,,247
2012-3-4,41,32,24,30,25,18,100,76,42,29.59,29.51,29.44,10,10,9,12,4,16,0.00,2,,207
2012-3-5,28,24,19,27,11,3,100,65,40,30.12,29.80,29.53,10,8,2,15,9,23,0.00,4,,314
2012-3-6,32,18,3,5,1,-6,92,53,24,30.51,30.41,30.24,10,10,10,9,3,,0.00,0,,306
2012-3-7,46,30,15,30,20,0,79,59,45,30.50,30.30,30.12,10,10,10,9,3,18,0.00,1,,187
2012-3-8,57,48,39,45,38,28,76,65,51,30.09,29.87,29.60,10,10,10,13,8,23,0.00,2,,190
2012-3-9,51,38,26,45,21,12,100,59,36,30.11,29.89,29.52,10,10,5,22,11,32,0.17,3,,290
2012-3-10,35,27,19,16,13,10,80,58,35,30.44,30.32,30.14,10,10,10,12,5,16,0.00,1,,357
2012-3-11,48,34,21,28,22,16,86,60,34,30.43,30.26,30.15,10,10,10,12,4,18,0.00,2,,208
2012-3-12,62,44,26,34,30,25,100,66,29,30.20,30.15,30.10,10,10,7,8,2,,0.00,0,,270
2012-3-13,60,50,39,48,36,30,93,66,48,30.11,29.98,29.85,10,10,10,10,2,,0.00,5,,30
2012-3-14,33,32,30,34,30,28,100,96,93,30.24,30.12,30.01,10,4,2,13,8,16,0.00,8,,27
2012-3-15,37,30,24,28,25,21,100,83,60,30.38,30.33,30.27,10,9,3,14,9,17,0.00,6,,15
2012-3-16,35,30,26,36,29,25,100,95,86,30.32,30.22,30.07,10,8,2,6,1,,0.21,7,,194
2012-3-17,55,44,32,37,33,27,100,75,33,30.32,30.25,30.13,10,9,2,9,4,,0.00,2,,354
2012-3-18,77,57,37,46,41,34,100,70,29,30.24,30.14,30.03,10,10,5,12,6,21,0.00,1,,197
2012-3-19,71,56,42,46,42,36,93,64,40,30.27,30.14,30.02,10,10,5,12,4,,0.00,0,,81
2012-3-20,78,58,37,50,41,34,93,67,36,30.29,30.22,30.12,10,10,10,7,3,,0.00,0,,197
2012-3-21,82,62,42,55,49,41,100,64,34,30.25,30.20,30.13,10,9,1,12,3,16,0.00,0,,238
2012-3-22,82,64,46,54,49,45,100,66,32,30.12,30.03,29.90,10,10,2,15,3,20,0.00,0,,251
2012-3-23,64,55,46,46,24,10,67,33,13,30.06,30.00,29.93,10,10,10,18,9,34,0.00,0,,327
2012-3-24,53,43,33,12,10,5,41,29,18,30.15,30.10,30.00,10,10,10,12,7,,0.00,0,,360
2012-3-25,42,40,37,41,36,30,100,87,70,30.01,29.92,29.80,10,10,7,9,2,,0.10,7,,186
2012-3-26,37,32,28,37,24,9,100,71,40,29.76,29.65,29.54,10,8,0,25,9,38,0.02,6,,301
2012-3-27,39,28,17,7,1,-2,53,36,17,30.06,30.00,29.90,10,10,10,23,14,36,0.00,0,,339
2012-3-28,33,30,28,32,23,5,100,77,32,30.09,29.92,29.65,10,9,1,10,3,17,0.02,7,,185
2012-3-29,35,32,28,32,29,27,100,93,75,29.75,29.67,29.58,10,6,2,12,8,,0.00,8,,11
2012-3-30,39,34,28,27,20,12,86,62,36,29.92,29.86,29.79,10,10,10,20,9,31,0.00,2,,299
2012-3-31,46,32,19,25,17,14,93,61,29,30.02,29.97,29.85,10,10,10,12,2,16,0.00,0,,336